FENGYUN 1C DEB, 31005

Orbit data source: Space-Track

FENGYUN 1C DEB, 31005 is space debris in SSO originally from a launch on Mon, 10 May 1999 UTC launched from the Taiyaun Space Center, China (TSC). Fengyun 1C debris stems from the Chinese weather satellite Fengyun-1C, which was intentionally destroyed by a Chinese anti-satellite missile in 2007. This event dramatically increased the amount of space debris, with thousands of trackable fragments posing hazards to satellites and human spaceflight. The Fengyun 1C debris cloud has become a focal point in discussions about space sustainability and the need for international regulations to prevent the creation of new debris.

Loading next visibility...
Identifier
31005, 1999-025BCX
Orbit
SSO
Country
Flag of CNCN / PRC
Related business
Manufacturer
Unknown
Mission
Spacecraft
Bus & Motor
Unknown
Mass
Unknown
Launch date (UTC)
Icon of a cake. It is the launch day of the satellite!1999-05-10 (27 years ago)
Launch vehicle
Unknown
Launch site
Taiyaun Space Center, China (TSC)
Object type
Payload
Rocket body
Debris
Shape & HBR
Unknown shape, 0.1 m
Radar Cross Section
Small (<0.1 m²)

Expand to show TLE details & history
Last TLE update: 2 days ago

TLE from 2 days ago
0 FENGYUN 1C DEB
1 31005U 99025BCX 26128.33590292  .00001468  00000-0  12041-2 0  9995
2 31005  98.6234 254.9606 0177861 286.1556 129.4895 13.83846855963083
Epoch: 2026-05-08T08:03Z
TLE epoch observation values (Epoch: 2026-05-08T08:03:42.012Z)
Latitude
56.30076°
Longitude
-105.20894°
Altitude
1,043.89 km
Speed
7.293 km/s
True Right ascension
16h 07m 32s
True Declination
56° 08' 53"
Sunlit
Object was in daylight at epoch
Visualization orbit readout
Latitude
Unknown
Longitude
Unknown
Altitude
Unknown
Speed
Unknown
Apparent Right ascension
Unknown
Apparent Declination
Unknown
Sunlit
N/A
Visualization observer readout
Local Sidereal Time
12:56:35
Azimuth
Unknown
Elevation
Unknown
Doppler factor
Unknown
Orbital elements
Apogee altitude
1,077.77 km
Perigee altitude
817.182 km
Semi-major axis
7,325.613 km
Eccentricity
0.01779
Inclination
98.6234°
RAAN
254.9606°
Arg. of periapsis
286.1556°
True anomaly
131.04028°
Mean anomaly
129.4895°
Eccentric anomaly
130.26709°
Mean motion
3.4616 °/min
Orbital period
104 mins
BSTAR
0.0012041
Loading maneuver chart data...
Computing Atmospheric mass density...

Documentation

Showing up to 5 results
|